Volver al catálogo

STARLINK-38020

ActivoComunicacionesSSO
NORAD 69713·PAYLOAD·🇺🇸 United States

Lanzado Jun 28, 2026 desde Vandenberg Space Force Base

Loading…

Próximos Pases (próximas 24 horas)

TLE

ActualizadoSource: CelesTrak SupGP

Época: Sep 15, 2026, 04:24 UTC

1 69713C 26147K   26258.18381944 -.00054750  00000+0 -16992-2 0  2586
2 69713  97.2837 294.6015 0001113  82.0012  73.8856 15.33473570    16

Sigue STARLINK-38020 en tiempo real con AllMySat

Download on the App Store